Terminal Aerodrome Forecast
Issued by NWS Wilmington, OH

Current Version | Previous Version | Graphics & Text | Print | Product List | Glossary On
Versions: 1 2 3 4 5 6 7 8 9 10 11 12 13 14 15 16 17 18 19 20 21 22
000
FTUS41 KILN 192000 AAA
TAFCVG
TAF AMD
KCVG 192018Z 1920/2024 04010G17KT P6SM SKC
     FM200000 06005KT P6SM SKC
     FM201400 14007KT P6SM BKN250
     FM202000 16007KT P6SM SCT040 BKN250=

USA.gov is the U.S. government's official web portal to all federal, state and local government web resources and services.